Hourly Weather Adischevo

Today, 7 March, Sunday

Time Temperature Precipitation Wind Pressure Humidity
00:00 -17°C° 0 mm 1 mps 745 mmHg 97%
01:00 -18°C° 0 mm 1 mps 745 mmHg 98%
02:00 -18°C° 0 mm 1 mps 745 mmHg 98%
03:00 -18°C° 0 mm 1 mps 745 mmHg 98%
04:00 -19°C° 0 mm 0 mps 745 mmHg 99%
05:00 -19°C° 0 mm 0 mps 745 mmHg 98%
06:00 -18°C° 0 mm 0 mps 745 mmHg 98%
07:00 -18°C° 0 mm 1 mps 745 mmHg 98%
08:00 -17°C° 0 mm 1 mps 745 mmHg 95%
09:00 -15°C° 0 mm 1 mps 745 mmHg 92%
10:00 -14°C° 0 mm 1 mps 745 mmHg 89%
11:00 -13°C° 0 mm 1 mps 744 mmHg 87%
12:00 -12°C° 0 mm 1 mps 744 mmHg 84%
13:00 -11°C° 0 mm 1 mps 744 mmHg 81%
14:00 -11°C° 0 mm 1 mps 744 mmHg 82%
15:00 -11°C° 0 mm 1 mps 744 mmHg 83%
16:00 -11°C° 0 mm 1 mps 743 mmHg 84%
17:00 -12°C° 0 mm 1 mps 743 mmHg 87%
18:00 -14°C° 0 mm 1 mps 743 mmHg 91%
19:00 -15°C° 0 mm 1 mps 743 mmHg 94%
20:00 -16°C° 0 mm 1 mps 743 mmHg 95%
21:00 -16°C° 0 mm 1 mps 743 mmHg 96%
22:00 -17°C° 0 mm 1 mps 743 mmHg 97%
23:00 -17°C° 0 mm 1 mps 743 mmHg 97%

Tomorrow, 8 March, Monday

Time Temperature Precipitation Wind Pressure Humidity
00:00 -18°C° 0 mm 1 mps 743 mmHg 97%
01:00 -18°C° 0 mm 1 mps 742 mmHg 98%
02:00 -18°C° 0 mm 1 mps 742 mmHg 98%
03:00 -19°C° 0 mm 1 mps 742 mmHg 98%
04:00 -21°C° 0 mm 2 mps 741 mmHg 98%
05:00 -20°C° 0 mm 2 mps 741 mmHg 97%
06:00 -21°C° 0 mm 3 mps 740 mmHg 96%
07:00 -20°C° 0 mm 4 mps 740 mmHg 95%
08:00 -19°C° 0.2 mm 4 mps 739 mmHg 94%
09:00 -18°C° 0.2 mm 4 mps 739 mmHg 93%
10:00 -17°C° 0.2 mm 4 mps 739 mmHg 92%
11:00 -15°C° 0.1 mm 4 mps 738 mmHg 90%
12:00 -14°C° 0.1 mm 4 mps 737 mmHg 89%
13:00 -12°C° 0.1 mm 4 mps 737 mmHg 88%
14:00 -12°C° 0.2 mm 4 mps 736 mmHg 89%
15:00 -11°C° 0.2 mm 4 mps 735 mmHg 91%
16:00 -10°C° 0.2 mm 4 mps 735 mmHg 93%
17:00 -10°C° 0.4 mm 4 mps 735 mmHg 93%
18:00 -10°C° 0.4 mm 4 mps 735 mmHg 94%
19:00 -9°C° 0.4 mm 4 mps 734 mmHg 94%
20:00 -10°C° 0.4 mm 5 mps 735 mmHg 93%
21:00 -11°C° 0.4 mm 5 mps 735 mmHg 92%
22:00 -11°C° 0.4 mm 6 mps 735 mmHg 90%
23:00 -12°C° 0.1 mm 5 mps 736 mmHg 91%

Day after tomorrow, 9 March, Tuesday

Time Temperature Precipitation Wind Pressure Humidity
00:00 -13°C° 0.1 mm 5 mps 736 mmHg 92%
01:00 -12°C° 0.1 mm 4 mps 736 mmHg 93%
02:00 -13°C° 0.1 mm 3 mps 737 mmHg 94%
03:00 -13°C° 0.1 mm 2 mps 737 mmHg 95%
04:00 -13°C° 0.1 mm 2 mps 738 mmHg 95%
05:00 -14°C° 0.1 mm 2 mps 738 mmHg 96%
06:00 -15°C° 0.1 mm 2 mps 738 mmHg 96%
07:00 -14°C° 0.1 mm 1 mps 739 mmHg 96%
08:00 -15°C° 0 mm 2 mps 740 mmHg 94%
09:00 -15°C° 0 mm 2 mps 740 mmHg 93%
10:00 -14°C° 0 mm 2 mps 741 mmHg 91%
11:00 -13°C° 0 mm 2 mps 742 mmHg 90%
12:00 -13°C° 0 mm 2 mps 743 mmHg 89%
13:00 -12°C° 0 mm 2 mps 743 mmHg 88%
14:00 -12°C° 0 mm 2 mps 744 mmHg 88%
15:00 -12°C° 0 mm 2 mps 744 mmHg 88%
16:00 -12°C° 0 mm 2 mps 745 mmHg 89%
17:00 -13°C° 0 mm 2 mps 745 mmHg 91%
18:00 -15°C° 0 mm 2 mps 745 mmHg 93%
19:00 -14°C° 0 mm 1 mps 746 mmHg 96%
20:00 -17°C° 0 mm 2 mps 746 mmHg 96%
21:00 -19°C° 0 mm 2 mps 746 mmHg 97%
22:00 -21°C° 0 mm 2 mps 747 mmHg 97%
23:00 -23°C° 0 mm 2 mps 747 mmHg 97%

10 March, Wednesday

Time Temperature Precipitation Wind Pressure Humidity
00:00 -24°C° 0 mm 2 mps 747 mmHg 97%
01:00 -25°C° 0 mm 2 mps 747 mmHg 97%
02:00 -26°C° 0 mm 2 mps 747 mmHg 96%
03:00 -26°C° 0 mm 2 mps 747 mmHg 96%
04:00 -27°C° 0 mm 2 mps 747 mmHg 95%
05:00 -30°C° 0 mm 3 mps 747 mmHg 95%
06:00 -31°C° 0 mm 3 mps 747 mmHg 95%
07:00 -33°C° 0 mm 3 mps 747 mmHg 95%
08:00 -32°C° 0 mm 3 mps 747 mmHg 94%
09:00 -31°C° 0 mm 4 mps 747 mmHg 93%
10:00 -30°C° 0 mm 4 mps 747 mmHg 92%
11:00 -29°C° 0 mm 4 mps 746 mmHg 90%
12:00 -27°C° 0 mm 5 mps 746 mmHg 88%
13:00 -26°C° 0 mm 5 mps 746 mmHg 86%
14:00 -25°C° 0 mm 5 mps 746 mmHg 85%
15:00 -25°C° 0 mm 5 mps 746 mmHg 85%
16:00 -24°C° 0 mm 5 mps 746 mmHg 84%
17:00 -25°C° 0 mm 5 mps 746 mmHg 85%
18:00 -25°C° 0 mm 5 mps 747 mmHg 87%
19:00 -26°C° 0 mm 5 mps 747 mmHg 88%
20:00 -26°C° 0 mm 4 mps 748 mmHg 89%
21:00 -26°C° 0 mm 4 mps 748 mmHg 90%
22:00 -27°C° 0 mm 4 mps 748 mmHg 91%
23:00 -27°C° 0 mm 3 mps 748 mmHg 93%

11 March, Thursday

Time Temperature Precipitation Wind Pressure Humidity
00:00 -29°C° 0 mm 3 mps 748 mmHg 94%
01:00 -28°C° 0 mm 2 mps 748 mmHg 95%
02:00 -29°C° 0 mm 2 mps 748 mmHg 97%
03:00 -29°C° 0 mm 2 mps 748 mmHg 98%
04:00 -28°C° 0 mm 1 mps 748 mmHg 99%
05:00 -28°C° 0 mm 1 mps 748 mmHg 99%
06:00 -28°C° 0 mm 1 mps 749 mmHg 99%
07:00 -29°C° 0 mm 1 mps 749 mmHg 99%
08:00 -25°C° 0 mm 1 mps 749 mmHg 97%
09:00 -23°C° 0 mm 1 mps 749 mmHg 96%
10:00 -21°C° 0 mm 1 mps 749 mmHg 95%
11:00 -21°C° 0 mm 2 mps 749 mmHg 94%
12:00 -20°C° 0 mm 2 mps 749 mmHg 93%
13:00 -18°C° 0 mm 2 mps 749 mmHg 92%
14:00 -17°C° 0 mm 2 mps 749 mmHg 92%
15:00 -16°C° 0 mm 2 mps 749 mmHg 91%
16:00 -15°C° 0 mm 2 mps 749 mmHg 91%
17:00 -15°C° 0.1 mm 2 mps 749 mmHg 93%
18:00 -15°C° 0.1 mm 2 mps 750 mmHg 94%
19:00 -15°C° 0.1 mm 2 mps 750 mmHg 95%
20:00 -14°C° 0.1 mm 2 mps 750 mmHg 95%
21:00 -14°C° 0.1 mm 3 mps 751 mmHg 94%
22:00 -13°C° 0.1 mm 3 mps 751 mmHg 93%
23:00 -13°C° 0 mm 3 mps 751 mmHg 93%

12 March, Friday

Time Temperature Precipitation Wind Pressure Humidity
00:00 -14°C° 0 mm 3 mps 752 mmHg 92%
01:00 -14°C° 0 mm 3 mps 752 mmHg 92%
02:00 -16°C° 0 mm 3 mps 752 mmHg 93%
03:00 -18°C° 0 mm 3 mps 753 mmHg 94%
04:00 -18°C° 0 mm 2 mps 753 mmHg 96%
05:00 -19°C° 0 mm 2 mps 754 mmHg 96%
06:00 -20°C° 0 mm 2 mps 754 mmHg 96%
07:00 -21°C° 0 mm 2 mps 755 mmHg 97%
08:00 -19°C° 0 mm 2 mps 755 mmHg 94%
09:00 -18°C° 0 mm 3 mps 755 mmHg 92%
10:00 -16°C° 0 mm 3 mps 756 mmHg 90%
11:00 -14°C° 0 mm 3 mps 756 mmHg 86%
12:00 -13°C° 0 mm 3 mps 756 mmHg 83%
13:00 -10°C° 0 mm 3 mps 756 mmHg 80%
14:00 -11°C° 0 mm 4 mps 756 mmHg 79%
15:00 -10°C° 0 mm 4 mps 756 mmHg 78%
16:00 -9°C° 0 mm 4 mps 756 mmHg 77%
17:00 -10°C° 0 mm 3 mps 756 mmHg 81%
18:00 -12°C° 0 mm 3 mps 757 mmHg 84%
19:00 -12°C° 0 mm 2 mps 757 mmHg 88%
20:00 -13°C° 0 mm 2 mps 757 mmHg 89%
21:00 -14°C° 0 mm 2 mps 757 mmHg 91%
22:00 -15°C° 0 mm 2 mps 758 mmHg 92%
23:00 -16°C° 0 mm 2 mps 758 mmHg 93%
Show more